Regional Weather Roundup
Issued by NWS

Home | Current Version | Previous Version | Graphics & Text | Print | Product List | Glossary On
Versions: 1 2 3 4 5 6 7 8 9 10 11 12 13 14 15 16 17 18 19 20 21 22 23 24 25 26 27 28 29 30 31 32 33 34 35 36 37 38 39 40 41 42 43 44 45 46 47 48 49 50
000
ASUS43 KOAX 010510
RWRNE

WEATHER ROUNDUP FOR NEBRASKA
NATIONAL WEATHER SERVICE OMAHA NE
1200 AM CDT TUE SEP 01 2015

NOTES: SATELLITE DATA IS BEING USED TO AUGMENT CLOUD COVER ABOVE
       12000 FEET.
       "FAIR" INDICATES FEW OR NO CLOUDS BELOW 12,000 FEET WITH NO
       SIGNIFICANT WEATHER AND/OR OBSTRUCTIONS TO VISIBILITY.

  * THESE STATIONS DO NOT REPORT WEATHER SUCH AS RAIN...SNOW OR FOG.

NEZ001>004-019>022-054>056-010600-
NEBRASKA PANHANDLE

CITY           SKY/WX    TMP DP  RH WIND       PRES   REMARKS
SCOTTSBLUFF    PTCLDY    64  55  72 W3        30.01F
ALLIANCE       CLOUDY    69  50  50 SW3       29.99F
CHADRON        PTCLDY    66  49  54 SW6       29.94F
KIMBALL        CLOUDY    61  57  86 W5        30.07F
SIDNEY         CLOUDY    66  54  65 SW7       30.06F
$$

NEZ057>060-069>072-079>082-010600-
SOUTHWEST NEBRASKA

CITY           SKY/WX    TMP DP  RH WIND       PRES   REMARKS
NORTH PLATTE   CLOUDY    72  64  76 SE7       29.93S
IMPERIAL       MOCLDY    73  61  65 W13       29.99R
LEXINGTON      PTCLDY    71  64  78 SE5       29.92R
MCCOOK         PTCLDY    79  52  38 S10       29.90R
OGALLALA       CLOUDY    73  62  68 SE5       30.00R
$$

NEZ005>010-023>029-035>040-094-010600-
NORTH CENTRAL NEBRASKA

CITY           SKY/WX    TMP DP  RH WIND       PRES   REMARKS
VALENTINE      MOCLDY    64  59  83 N3        29.95S
AINSWORTH      MOCLDY    67  64  90 NE3       29.94F
BROKEN BOW     MOCLDY    74  66  76 E5        29.93F
O`NEILL        MOCLDY    73  70  91 SW3       29.93S
ORD            MOCLDY    67  64  90 CALM      29.91F
THEDFORD       CLOUDY    70  64  80 CALM      29.96F
$$

NEZ041-046>049-061>064-073>077-083>087-010600-
SOUTH CENTRAL NEBRASKA

CITY           SKY/WX    TMP DP  RH WIND       PRES   REMARKS
GRAND ISLAND   CLEAR     72  65  78 SE7       29.92S
AURORA         CLEAR     69  67  94 SE6       29.92S
HASTINGS       CLEAR     73  64  73 SE7       29.92S
HEBRON         CLEAR     75  64  67 S8        29.92S
HOLDREGE       CLEAR     70  59  67 SE7       29.92S
KEARNEY *      CLEAR     73  61  64 S10       29.91S
YORK           CLEAR     72  68  88 SE8       29.93S
$$

NEZ011>018-030>034-042>045-010600-
NORTHEAST NEBRASKA

CITY           SKY/WX    TMP DP  RH WIND       PRES   REMARKS
NORFOLK        CLEAR     71  68  90 SE3       29.91F
ALBION         CLEAR     70  67  90 SE3       29.92F
BLAIR          CLEAR     74  67  79 S9        29.93S
COLUMBUS *     CLEAR     70  63  78 E5        29.92S
FREMONT        CLEAR     74  68  80 SE8       29.92S
TEKAMAH        CLEAR     66  65  96 CALM      29.92R FOG
WAYNE          FAIR      70  67  90 CALM      29.92S
$$

NEZ050>053-065>068-078-088>093-010600-
SOUTHEAST NEBRASKA

CITY           SKY/WX    TMP DP  RH WIND       PRES   REMARKS
LINCOLN        CLEAR     72  67  84 S8        29.93S
OMAHA EPPLEY   CLEAR     75  69  81 S7        29.92S
BEATRICE       CLEAR     73  67  82 SE7       29.94R
FALLS CITY     CLEAR     75  69  81 S8        29.94R
NEBRASKA CITY  CLEAR     73  67  82 S9        29.95R
PLATTSMOUTH    CLEAR     73  68  86 SE8       29.94S
$$

NEZ044-045-051>053-067-010600-
OMAHA AREA

CITY           SKY/WX    TMP DP  RH WIND       PRES   REMARKS
OMAHA EPPLEY   CLEAR     75  69  81 S7        29.92S
BLAIR          CLEAR     74  67  79 S9        29.93S
FREMONT        CLEAR     74  68  80 SE8       29.92S
MILLARD        CLEAR     73  69  87 SE3       29.93R
PLATTSMOUTH    CLEAR     73  68  86 SE8       29.94S
WAHOO          FAIR      68  66  94 SE5       29.93R
$$




USA.gov is the U.S. government's official web portal to all federal, state and local government web resources and services.